TimeEST,TemperatureF,Dew PointF,Humidity,Sea Level PressureIn,VisibilityMPH,Wind Direction,Wind SpeedMPH,Gust SpeedMPH,PrecipitationIn,Events,Conditions,WindDirDegrees,DateUTC
12:53 AM,19.9,16.0,85,30.23,6.0,SSE,3.5,-,N/A,,Clear,160,2013-01-08 05:53:00
1:53 AM,21.0,16.0,81,30.24,6.0,South,3.5,-,N/A,,Haze,180,2013-01-08 06:53:00
2:53 AM,17.1,14.0,88,30.24,6.0,SSE,4.6,-,N/A,,Clear,160,2013-01-08 07:53:00
3:53 AM,21.0,17.1,85,30.23,5.0,Calm,Calm,-,N/A,,Clear,0,2013-01-08 08:53:00
4:53 AM,21.0,17.1,85,30.23,4.0,ESE,3.5,-,N/A,,Clear,120,2013-01-08 09:53:00
5:53 AM,21.0,17.1,85,30.24,5.0,Calm,Calm,-,N/A,,Clear,0,2013-01-08 10:53:00
6:53 AM,18.0,15.1,88,30.27,3.0,Calm,Calm,-,N/A,,Clear,0,2013-01-08 11:53:00
7:53 AM,18.0,14.0,84,30.27,3.0,Calm,Calm,-,N/A,,Clear,0,2013-01-08 12:53:00
8:53 AM,21.0,17.1,85,30.29,4.0,Calm,Calm,-,N/A,,Clear,0,2013-01-08 13:53:00
9:53 AM,28.0,23.0,81,30.29,5.0,ESE,4.6,-,N/A,,Haze,120,2013-01-08 14:53:00
10:53 AM,34.0,26.1,73,30.29,6.0,SE,5.8,-,N/A,,Haze,140,2013-01-08 15:53:00
11:53 AM,37.0,27.0,67,30.27,7.0,SE,5.8,-,N/A,,Clear,140,2013-01-08 16:53:00
12:53 PM,41.0,28.0,60,30.24,10.0,SW,6.9,-,N/A,,Clear,220,2013-01-08 17:53:00
1:53 PM,42.1,28.0,58,30.23,10.0,South,10.4,-,N/A,,Clear,190,2013-01-08 18:53:00
2:53 PM,44.1,28.0,53,30.22,10.0,South,9.2,-,N/A,,Clear,190,2013-01-08 19:53:00
3:53 PM,44.1,27.0,51,30.23,10.0,SSW,9.2,-,N/A,,Clear,200,2013-01-08 20:53:00
4:53 PM,44.1,26.1,49,30.23,10.0,SSW,8.1,-,N/A,,Clear,200,2013-01-08 21:53:00
5:53 PM,41.0,27.0,57,30.23,10.0,South,3.5,-,N/A,,Clear,190,2013-01-08 22:53:00
6:53 PM,37.0,27.0,67,30.23,10.0,Calm,Calm,-,N/A,,Clear,0,2013-01-08 23:53:00
7:53 PM,36.0,27.0,70,30.24,10.0,SSE,4.6,-,N/A,,Clear,160,2013-01-09 00:53:00
8:53 PM,37.0,27.0,67,30.22,10.0,SSE,4.6,-,N/A,,Scattered Clouds,150,2013-01-09 01:53:00
9:53 PM,36.0,27.0,70,30.21,10.0,SSE,4.6,-,N/A,,Clear,160,2013-01-09 02:53:00
10:53 PM,36.0,27.0,70,30.21,10.0,SSE,4.6,-,N/A,,Partly Cloudy,150,2013-01-09 03:53:00
11:53 PM,39.0,30.0,70,30.21,10.0,SE,5.8,-,N/A,,Overcast,140,2013-01-09 04:53:00